{"data":{"norad_id":61213,"intl_designator":"2024-171P","name":"STARLINK-32386","alt_names":[],"object_type":"PAYLOAD","status":"ACTIVE","operator":null,"country":"US","launch_date":"2024-09-20","launch_site_code":"AFWTR","launch_vehicle":null,"mission":null,"orbit_class":"UNKNOWN","rcs_meters":null,"size_class":null,"mass_kg":null,"dimensions":null,"purposes":["comms"],"wikipedia_slug":null,"has_3d_model":false,"image_url":null,"decayed_at":null,"tle_current":{"epoch":"2026-05-24T22:54:11.146752Z","epoch_age_seconds":72912,"freshness":"FRESH","line1":"1 61213U 24171P   26144.95429568  .00054060  00000+0  16139-2 0  9999","line2":"2 61213  53.1608 327.5849 0000972  68.2665 291.8441 15.34119313 94055","mean_motion":15.34119313,"eccentricity":9.72e-5,"inclination_deg":53.1608,"raan_deg":327.5849,"arg_perigee_deg":68.2665,"mean_anomaly_deg":291.8441,"bstar":0.0016139,"rev_number":9405,"period_min":93.8649287443,"perigee_km":462.87261754579,"apogee_km":464.20263909353,"semimajor_km":6841.6746283197,"source":"CELESTRAK","updated_at":"2026-05-25T13:38:19.361460Z"}}}